Menominee, MI

4:09 AM CDT on September 22, 2017 (GMT -0500)
Menominee-Marinette Twin County

Weather History for KMNM - October, 2010

Change the Weather History Date:

Wednesday, October 13, 2010

  Actual Average Record
Temperature  
Mean Temperature 56 °F -  
Max Temperature 62 °F 58 °F 81 °F (1956)
Min Temperature 48 °F 39 °F 20 °F (1988)
Degree Days  
Heating Degree Days 8    
Growing Degree Days 6 (Base 50)    
Moisture  
Dew Point 40 °F    
Average Humidity 51    
Maximum Humidity 77    
Minimum Humidity 36    
Precipitation  
Precipitation 0.00 in - - ()
Sea Level Pressure  
Sea Level Pressure 30.06 in    
Wind  
Wind Speed 9 mph (North)    
Max Wind Speed 14 mph    
Max Gust Speed 18 mph    
Visibility 10 miles    
Events      
Averages and records for this station are not official NWS values.
T = Trace of Precipitation, MM = Missing Value Source: NWS Daily Summary

Daily Weather History Graph

Daily Weather History Graph

Search for Another Location

Airport or City:

Trip Planner

Search our weather history database for the weather conditions in past years. The results will help you decide how hot, cold, wet, or windy it might be!

Date:

Astronomy

Oct. 13, 2010 Rise Set
Actual Time 7:03 AM CDT 6:09 PM CDT
Civil Twilight 6:34 AM CDT 6:38 PM CDT
Nautical Twilight 6:00 AM CDT 7:12 PM CDT
Astronomical Twilight 5:25 AM CDT 7:46 PM CDT
Moon 1:37 PM CDT (10/13) 10:35 PM CDT (10/13)
Length of Visible Light 12h 04m
Length of Day
11h 05m
Waxing Crescent, 38% of the Moon is Illuminated
Oct 13
Waxing Crescent
Oct 14
First Quarter
Oct 22
Full
Oct 30
Last Quarter
Nov 5
New

Hourly Weather History & Observations

Time (CDT) Temp. Windchill Dew Point Humidity Pressure Visibility Wind Dir Wind Speed Gust Speed Precip Events Conditions
12:15 AM 59.0 °F - 51.8 °F 77% 29.97 in 10.0 mi NNW 10.4 mph - N/A   Mostly Cloudy
12:35 AM 57.2 °F - 50.0 °F 77% 29.97 in 10.0 mi NNW 5.8 mph - N/A   Mostly Cloudy
12:55 AM 57.2 °F - 48.2 °F 72% 29.97 in 10.0 mi NNW 8.1 mph 18.4 mph N/A   Mostly Cloudy
1:15 AM 57.2 °F - 46.4 °F 67% 29.98 in 10.0 mi NNW 10.4 mph - N/A   Mostly Cloudy
1:35 AM 55.4 °F - 46.4 °F 72% 29.98 in 10.0 mi NNW 8.1 mph - N/A   Mostly Cloudy
1:55 AM - - - N/A% - 10.0 mi North - - N/A   Clear
2:35 AM - - - N/A% - 10.0 mi North - - N/A   Clear
2:55 AM - - - N/A% - 10.0 mi North - - N/A   Clear
3:15 AM - - - N/A% - 10.0 mi North - - N/A   Clear
3:35 AM - - - N/A% - 10.0 mi North - - N/A   Clear
3:55 AM - - - N/A% - 10.0 mi North - - N/A   Clear
4:15 AM - - - N/A% - 10.0 mi North - - N/A   Clear
4:35 AM - - - N/A% - 10.0 mi North - - N/A   Clear
4:55 AM - - - N/A% - 10.0 mi North - - N/A   Clear
5:15 AM - - - N/A% - 10.0 mi North - - N/A   Clear
5:35 AM - - - N/A% - 10.0 mi North - - N/A   Clear
5:55 AM - - - N/A% - 10.0 mi North - - N/A   Clear
6:15 AM - - - N/A% - 10.0 mi North - - N/A   Clear
6:35 AM - - - N/A% - 10.0 mi North - - N/A   Clear
6:55 AM - - - N/A% - 10.0 mi North - - N/A   Clear
7:15 AM - - - N/A% - 10.0 mi North - - N/A   Clear
7:35 AM - - - N/A% - 10.0 mi North - - N/A   Clear
7:55 AM - - - N/A% - 10.0 mi North - - N/A   Clear
8:15 AM - - - N/A% - 10.0 mi North - - N/A   Clear
8:35 AM - - - N/A% - 10.0 mi North - - N/A   Clear
8:55 AM - - - N/A% - 10.0 mi North - - N/A   Clear
9:15 AM - - - N/A% - 10.0 mi North - - N/A   Clear
9:35 AM 51.8 °F - 39.2 °F 62% 30.09 in 10.0 mi North 9.2 mph - N/A   Clear
9:55 AM 53.6 °F - 39.2 °F 58% 30.08 in 10.0 mi North 10.4 mph - N/A   Clear
10:15 AM 53.6 °F - 39.2 °F 58% 30.08 in 10.0 mi North 12.7 mph - N/A   Clear
10:35 AM 55.4 °F - 39.2 °F 54% 30.09 in 10.0 mi North 10.4 mph 16.1 mph N/A   Clear
10:55 AM 55.4 °F - 41.0 °F 58% 30.09 in 10.0 mi North 9.2 mph - N/A   Clear
11:15 AM 57.2 °F - 41.0 °F 55% 30.08 in 10.0 mi North 9.2 mph - N/A   Clear
11:35 AM 59.0 °F - 39.2 °F 48% 30.08 in 10.0 mi North 11.5 mph 16.1 mph N/A   Clear
11:55 AM 60.8 °F - 39.2 °F 45% 30.08 in 10.0 mi NNW 8.1 mph - N/A   Clear
12:15 PM 60.8 °F - 37.4 °F 42% 30.08 in 10.0 mi NNE 12.7 mph 16.1 mph N/A   Clear
12:35 PM 60.8 °F - 37.4 °F 42% 30.08 in 10.0 mi North 12.7 mph 18.4 mph N/A   Clear
12:55 PM 60.8 °F - 39.2 °F 45% 30.07 in 10.0 mi NNW 11.5 mph - N/A   Clear
1:15 PM 62.6 °F - 39.2 °F 42% 30.07 in 10.0 mi NNE 13.8 mph 18.4 mph N/A   Partly Cloudy
1:35 PM 60.8 °F - 37.4 °F 42% 30.07 in 10.0 mi NNW 6.9 mph 18.4 mph N/A   Partly Cloudy
1:55 PM 60.8 °F - 37.4 °F 42% 30.06 in 10.0 mi NW 5.8 mph - N/A   Partly Cloudy
2:15 PM 62.6 °F - 35.6 °F 37% 30.06 in 10.0 mi NNW 9.2 mph - N/A   Scattered Clouds
2:35 PM 62.6 °F - 35.6 °F 37% 30.06 in 10.0 mi North 9.2 mph - N/A   Scattered Clouds
2:55 PM 62.6 °F - 35.6 °F 37% 30.06 in 10.0 mi North 11.5 mph 17.3 mph N/A   Partly Cloudy
3:15 PM 60.8 °F - 33.8 °F 36% 30.07 in 10.0 mi NNW 8.1 mph - N/A   Partly Cloudy
3:35 PM 62.6 °F - 35.6 °F 37% 30.06 in 10.0 mi WNW 6.9 mph - N/A   Partly Cloudy
3:55 PM 62.6 °F - 35.6 °F 37% 30.06 in 9.0 mi NW 6.9 mph - N/A   Partly Cloudy
4:15 PM 60.8 °F - 33.8 °F 36% 30.06 in 10.0 mi North 9.2 mph - N/A   Partly Cloudy
4:35 PM 60.8 °F - 33.8 °F 36% 30.07 in 10.0 mi NNW 5.8 mph - N/A   Clear
4:55 PM 60.8 °F - 33.8 °F 36% 30.07 in 10.0 mi North 8.1 mph - N/A   Partly Cloudy
5:15 PM 59.0 °F - 42.8 °F 55% 30.07 in 10.0 mi ESE 4.6 mph - N/A   Mostly Cloudy
5:35 PM 59.0 °F - 41.0 °F 51% 30.08 in 10.0 mi East 5.8 mph - N/A   Overcast
5:55 PM 57.2 °F - 41.0 °F 55% 30.08 in 10.0 mi ESE 4.6 mph - N/A   Mostly Cloudy
6:15 PM 55.4 °F - 39.2 °F 54% 30.08 in 10.0 mi Calm Calm - N/A   Scattered Clouds
6:35 PM 53.6 °F - 39.2 °F 58% 30.08 in 10.0 mi Calm Calm - N/A   Clear
6:55 PM 51.8 °F - 39.2 °F 62% 30.09 in 10.0 mi Calm Calm - N/A   Clear
7:15 PM 48.2 °F - 39.2 °F 71% 30.10 in 7.0 mi Calm Calm - N/A   Clear
7:35 PM 48.2 °F - 39.2 °F 71% 30.10 in 10.0 mi Calm Calm - N/A   Clear
7:55 PM 44.6 °F 43.1 °F 37.4 °F 76% 30.10 in 10.0 mi WNW 3.5 mph - N/A   Clear
8:15 PM 44.6 °F 43.1 °F 37.4 °F 76% 30.10 in 10.0 mi WNW 3.5 mph - N/A   Clear
8:35 PM 44.6 °F - 37.4 °F 76% 30.10 in 5.0 mi Calm Calm - N/A   Clear
8:55 PM 42.8 °F 41.1 °F 37.4 °F 81% 30.10 in 7.0 mi WNW 3.5 mph - N/A   Clear
9:15 PM 42.8 °F - 37.4 °F 81% 30.10 in 5.0 mi Calm Calm - N/A   Clear
9:35 PM 42.8 °F 39.3 °F 37.4 °F 81% 30.10 in 5.0 mi WNW 5.8 mph - N/A   Clear
9:55 PM 42.8 °F 39.3 °F 35.6 °F 76% 30.10 in 5.0 mi WNW 5.8 mph - N/A   Clear
10:15 PM 44.6 °F 42.2 °F 33.8 °F 66% 30.10 in 8.0 mi NW 4.6 mph - N/A   Clear
10:35 PM 42.8 °F 41.1 °F 33.8 °F 70% 30.10 in 7.0 mi NW 3.5 mph - N/A   Clear
10:55 PM 39.2 °F - 33.8 °F 81% 30.10 in 8.0 mi Calm Calm - N/A   Clear
11:15 PM 39.2 °F - 33.8 °F 81% 30.09 in 9.0 mi Calm Calm - N/A   Clear
11:35 PM 39.2 °F 37.0 °F 33.8 °F 81% 30.09 in 10.0 mi WNW 3.5 mph - N/A   Clear
11:55 PM 37.4 °F - 32.0 °F 81% 30.09 in 10.0 mi Calm Calm - N/A   Clear